[[{"header":{"parameterUnit":"m.s-1","parameterCategory":1,"la1":30.2991,"la2":30.254,"lo1":-89.0895,"lo2":-89.0444,"dy":0.0017,"dx":0.0017,"nx":28,"ny":28,"refTime":"2023-10-18T21:00:00:Z","depth":0,"parameterNumber":2,"parameterNumberName":"U-component_of_WINDS"},"data":[0,0,0,0,0,0,0,0,0,0,0,0,0,0,0,0,0,0,0,0,0,0,0,0,0,0,0,0,0,0,0,0,0,0,0,0,0,0,0,0,0,0,0,0,0,0,0,0,0,0,0,0,0,0,0,0,0,0,-0.815,-0.815,0,-0.816,-0.8161,-0.8161,-0.8161,-0.8161,-0.8161,-0.8161,-0.8172,-0.8173,-0.8173,0,0,0,0,0,0,0,0,0,0,0,0,0,-0.8132,-0.8132,-0.815,-0.815,-0.8151,-0.816,-0.8161,-0.8161,-0.8161,-0.8161,-0.8161,-0.8161,-0.8172,-0.8173,-0.8173,0,0,0,0,0,0,0,0,0,0,0,0,0,-0.8141,-0.8132,-0.815,-0.8152,-0.8152,-0.816,-0.8161,-0.8161,-0.8161,-0.8161,-0.8161,-0.8161,-0.8172,-0.8172,-0.8173,-0.818,0,0,-0.8175,-0.8175,0,0,0,0,0,0,0,0,-0.814,-0.8141,-0.8152,-0.8152,-0.8152,-0.8159,-0.8158,-0.8167,-0.8161,-0.8158,-0.8161,-0.8161,-0.8168,-0.8169,-0.8171,-0.8181,-0.8181,-0.8175,-0.8175,-0.8176,-0.8176,0,0,0,0,0,0,0,-0.814,-0.8141,-0.8154,-0.8152,-0.8152,-0.8152,-0.8154,-0.816,-0.8164,-0.8158,-0.8158,-0.8159,-0.8168,-0.8171,-0.8172,-0.8182,-0.8175,-0.8176,-0.8176,-0.8176,-0.8198,-0.8198,0,0,0,0,0,0,-0.8139,-0.814,-0.8154,-0.8155,-0.8146,-0.8153,-0.8154,-0.8157,-0.8164,-0.8165,-0.816,-0.8159,-0.817,-0.8171,-0.8172,-0.8181,-0.8176,-0.8176,-0.8177,-0.8197,-0.8198,-0.8198,0,0,0,0,0,0,-0.8138,-0.814,-0.8154,-0.8148,-0.8149,-0.8153,-0.8157,-0.8158,-0.816,-0.8165,-0.8166,-0.8161,-0.817,-0.8171,-0.8178,-0.8181,-0.8176,-0.8177,-0.8197,-0.8197,-0.8198,-0.8199,0,0,0,0,0,0,-0.8138,-0.814,-0.8142,-0.8148,-0.815,-0.816,-0.8157,-0.8158,-0.8161,-0.8161,-0.8167,-0.8168,-0.817,-0.8177,-0.8179,-0.8182,-0.8178,-0.8197,-0.8197,-0.8198,-0.8199,-0.8199,-0.82,0,0,0,0,0,-0.8137,-0.8143,-0.8142,-0.8144,-0.8153,-0.816,-0.8161,-0.8163,-0.8161,-0.8164,-0.8167,-0.8167,-0.8181,-0.8178,-0.818,-0.8183,-0.8197,-0.8197,-0.8198,-0.8199,-0.8199,-0.82,0,0,0,0,0,0,-0.8138,-0.8143,-0.8143,-0.8151,-0.8155,-0.816,-0.8164,-0.8164,-0.8169,-0.8168,-0.8171,-0.8172,-0.8179,-0.8182,-0.8179,-0.8191,-0.8189,-0.8189,-0.8189,-0.8189,-0.819,-0.8189,-0.8178,0,0,0,0,0,-0.8139,-0.8144,-0.8148,-0.8154,-0.8156,-0.816,-0.8162,-0.8164,-0.8168,-0.817,-0.8173,-0.8178,-0.8183,-0.8186,-0.8191,-0.8199,-0.82,-0.8202,-0.8203,-0.8203,-0.8204,-0.8208,-0.8209,-0.8199,-0.8199,-0.8199,0,0,-0.8141,-0.8145,-0.8148,-0.8155,-0.8158,-0.8163,-0.8161,-0.8166,-0.817,-0.8171,-0.8178,-0.818,-0.8185,-0.8193,-0.8196,-0.8195,-0.8207,-0.8204,-0.8204,-0.8205,-0.8209,-0.821,-0.8211,-0.82,-0.82,-0.82,0,0,-0.8148,-0.8151,-0.8157,-0.816,-0.8165,-0.8167,-0.8168,-0.8173,-0.8175,-0.8181,-0.8182,-0.8186,-0.8195,-0.8199,-0.8202,-0.8209,-0.821,-0.8211,-0.8214,-0.8218,-0.8219,-0.822,-0.8222,-0.8223,-0.8212,-0.8212,-0.8212,0,-0.8151,-0.8158,-0.816,-0.8165,-0.8168,-0.8168,-0.8174,-0.8177,-0.8183,-0.8185,-0.8184,-0.8195,-0.8198,-0.8206,-0.8208,-0.8211,-0.8212,-0.821,-0.8219,-0.8219,-0.822,-0.8223,-0.8224,-0.8212,-0.8212,-0.8212,-0.8212,0,-0.8161,-0.8166,-0.817,-0.8175,-0.8179,-0.8184,-0.8187,-0.819,-0.819,-0.8193,-0.82,-0.8204,-0.8209,-0.8211,-0.8212,-0.822,-0.8219,-0.8218,-0.8216,-0.8221,-0.8224,-0.8225,-0.8212,-0.8212,-0.8212,-0.8212,0,0,-0.817,-0.8175,-0.8177,-0.8179,-0.8184,-0.8188,-0.8193,-0.8199,-0.8201,-0.8206,-0.821,-0.8217,-0.8217,-0.822,-0.8221,-0.8225,-0.823,-0.8224,-0.8224,-0.8225,-0.8239,-0.824,-0.8241,-0.8231,-0.8231,-0.8231,-0.8238,0,-0.8177,-0.8186,-0.8188,-0.8196,-0.82,-0.82,-0.8205,-0.8209,-0.8211,-0.8215,-0.8217,-0.8222,-0.8221,-0.8223,-0.8226,-0.8229,-0.8233,-0.8228,-0.8235,-0.8235,-0.8234,-0.8242,-0.8243,-0.825,-0.8239,-0.824,-0.824,0,-0.8188,-0.8191,-0.82,-0.8204,-0.8206,-0.821,-0.8215,-0.8219,-0.8223,-0.8224,-0.8227,-0.8228,-0.8234,-0.8231,-0.8239,-0.8235,-0.8238,-0.824,-0.824,-0.8241,-0.8238,-0.8243,-0.8252,-0.8253,-0.8241,-0.8241,-0.8241,0,-0.8193,-0.8201,-0.8207,-0.8209,-0.8213,-0.8216,-0.8218,-0.8222,-0.8225,-0.8229,-0.8231,-0.8236,-0.8239,-0.8243,-0.8245,-0.8242,-0.8252,-0.825,-0.8253,-0.8253,-0.8256,-0.8256,-0.8265,-0.8257,-0.8257,-0.8257,-0.8257,0,-0.8202,-0.8207,-0.8209,-0.8213,-0.8219,-0.822,-0.8226,-0.8228,-0.8231,-0.8235,-0.8236,-0.824,-0.8242,-0.8246,-0.8248,-0.8254,-0.8255,-0.8256,-0.8257,-0.8256,-0.8256,-0.8259,-0.8258,-0.8257,-0.8257,-0.8257,-0.8257,0,-0.821,-0.8211,-0.8218,-0.8221,-0.8222,-0.8227,-0.823,-0.8233,-0.8235,-0.824,-0.8242,-0.8244,-0.8249,-0.8251,-0.8258,-0.8259,-0.8266,-0.8266,-0.8265,-0.8265,-0.8269,-0.8268,-0.828,-0.8282,-0.8272,-0.8272,-0.8272,0,-0.8216,-0.822,-0.8223,-0.8226,-0.8228,-0.8232,-0.8235,-0.8236,-0.8239,-0.8244,-0.8247,-0.8252,-0.8256,-0.8264,-0.8266,-0.8271,-0.8271,-0.8275,-0.8272,-0.8272,-0.8272,-0.8271,-0.8272,-0.8276,-0.8276,-0.8276,-0.8276,0,-0.8226,-0.8226,-0.823,-0.8234,-0.8237,-0.824,-0.8244,-0.8246,-0.8247,-0.8251,-0.8256,-0.8259,-0.8265,-0.827,-0.8274,-0.8277,-0.8277,-0.8277,-0.8278,-0.8278,-0.8277,-0.8278,-0.8266,-0.8277,-0.8277,-0.8277,-0.8277,-0.8277,-0.8233,-0.8236,-0.8239,-0.8244,-0.8246,-0.8249,-0.8252,-0.8254,-0.8258,-0.8263,-0.8263,-0.8268,-0.8272,-0.8278,-0.828,-0.8285,-0.8284,-0.8285,-0.8286,-0.8286,-0.8287,-0.8276,-0.8285,-0.8285,-0.8285,-0.8285,-0.8285,0,-0.8243,-0.8245,-0.8249,-0.8253,-0.8256,-0.8255,-0.8259,-0.8261,-0.8266,-0.8269,-0.8273,-0.8278,-0.8283,-0.8285,-0.829,-0.8293,-0.8293,-0.8294,-0.8294,-0.8294,-0.8287,-0.8286,-0.8294,-0.8294,-0.8294,-0.8294,-0.8294,-0.8294,-0.8249,-0.8255,-0.8255,-0.8262,-0.8264,-0.8269,-0.8271,-0.8273,-0.8276,-0.8281,-0.8285,-0.8286,-0.8289,-0.8294,-0.8298,-0.8299,-0.83,-0.8302,-0.8302,-0.8296,-0.8295,-0.8294,-0.8293,-0.8302,-0.8302,-0.8309,-0.8309,-0.8309]},{"header":{"parameterUnit":"m.s-1","parameterCategory":1,"la1":30.2991,"la2":30.254,"lo1":-89.0895,"lo2":-89.0444,"dy":0.0017,"dx":0.0017,"nx":28,"ny":28,"refTime":"2023-10-18T21:00:00:Z","depth":0,"parameterNumber":3,"parameterNumberName":"V-component_of_WINDS"},"data":[0,0,0,0,0,0,0,0,0,0,0,0,0,0,0,0,0,0,0,0,0,0,0,0,0,0,0,0,0,0,0,0,0,0,0,0,0,0,0,0,0,0,0,0,0,0,0,0,0,0,0,0,0,0,0,0,0,0,3.0188,3.0188,0,3.0213,3.0213,3.0214,3.0173,3.0171,3.017,3.0169,3.0192,3.0194,3.0196,0,0,0,0,0,0,0,0,0,0,0,0,0,3.0102,3.0104,3.0188,3.0189,3.0189,3.0213,3.0213,3.0214,3.0173,3.0171,3.017,3.0168,3.0191,3.0194,3.0196,0,0,0,0,0,0,0,0,0,0,0,0,0,3.0134,3.0104,3.0188,3.0171,3.017,3.0213,3.0213,3.0214,3.0173,3.0171,3.0169,3.0167,3.0191,3.0193,3.0196,3.0256,0,0,3.0205,3.0206,0,0,0,0,0,0,0,0,3.0133,3.0138,3.0174,3.0173,3.0171,3.0188,3.0192,3.0228,3.0174,3.0172,3.0169,3.0166,3.0192,3.0195,3.0204,3.0257,3.0258,3.0205,3.0207,3.0208,3.0209,0,0,0,0,0,0,0,3.013,3.0136,3.0198,3.0174,3.0173,3.0162,3.0164,3.0198,3.0193,3.0172,3.0169,3.0173,3.0191,3.0201,3.0204,3.0258,3.0205,3.0208,3.021,3.0211,3.0359,3.0361,0,0,0,0,0,0,3.0131,3.0135,3.0197,3.0199,3.0147,3.0165,3.0167,3.0185,3.0193,3.0192,3.0175,3.0171,3.0197,3.0201,3.0205,3.0273,3.0208,3.0211,3.0213,3.0357,3.036,3.0362,0,0,0,0,0,0,3.0129,3.0137,3.0196,3.0166,3.0173,3.0169,3.0188,3.0186,3.0196,3.0195,3.0193,3.0186,3.0196,3.0201,3.0243,3.0274,3.0212,3.0215,3.0354,3.0358,3.0361,3.0412,0,0,0,0,0,0,3.0127,3.0136,3.016,3.0167,3.0175,3.0235,3.019,3.0188,3.0202,3.0197,3.0205,3.0205,3.0195,3.0239,3.0246,3.0276,3.0217,3.0352,3.0356,3.036,3.0408,3.0417,3.0425,0,0,0,0,0,3.0124,3.0173,3.0161,3.0169,3.0204,3.0237,3.0241,3.0229,3.0204,3.0227,3.0226,3.0204,3.027,3.0244,3.0251,3.0283,3.035,3.0355,3.036,3.0404,3.0415,3.0424,0,0,0,0,0,0,3.0169,3.0174,3.016,3.0214,3.0225,3.023,3.0258,3.0242,3.026,3.0255,3.0239,3.0241,3.0286,3.0289,3.026,3.034,3.0305,3.0312,3.0336,3.0347,3.0355,3.0353,3.0219,0,0,0,0,0,3.0186,3.0213,3.0215,3.0262,3.0269,3.0263,3.0277,3.0267,3.0277,3.0282,3.0284,3.0295,3.0317,3.0333,3.0354,3.0409,3.0408,3.0434,3.0442,3.0449,3.0455,3.0482,3.0493,3.0379,3.0378,3.0378,0,0,3.0219,3.0225,3.0243,3.0271,3.0279,3.0306,3.0267,3.0298,3.0318,3.0286,3.0326,3.0328,3.0339,3.0387,3.0409,3.0391,3.0487,3.0456,3.0461,3.0463,3.0488,3.0499,3.0508,3.0382,3.0381,3.0381,0,0,3.0294,3.0303,3.0341,3.035,3.0362,3.0358,3.0367,3.0374,3.0374,3.0414,3.0391,3.0414,3.0454,3.0462,3.0471,3.0549,3.0529,3.0556,3.06,3.0626,3.0635,3.0643,3.0669,3.0678,3.0562,3.0562,3.0562,0,3.0334,3.0376,3.0363,3.0396,3.0408,3.0381,3.0419,3.0428,3.0447,3.0455,3.0435,3.0484,3.049,3.0538,3.0557,3.0567,3.0575,3.0554,3.0635,3.0643,3.065,3.0674,3.0684,3.0565,3.0565,3.0564,3.0564,0,3.0423,3.0452,3.0482,3.05,3.0516,3.0551,3.0543,3.056,3.0549,3.0546,3.0586,3.0592,3.0612,3.0624,3.0613,3.0671,3.0659,3.0638,3.0602,3.0664,3.0686,3.0696,3.0569,3.0568,3.0567,3.0567,0,0,3.0527,3.0538,3.0549,3.0556,3.0567,3.0589,3.0622,3.0643,3.0657,3.0671,3.0697,3.0731,3.0711,3.0722,3.0712,3.0735,3.0794,3.0711,3.071,3.0724,3.0855,3.087,3.0881,3.0781,3.0783,3.0784,3.0854,0,3.06,3.0658,3.0647,3.0703,3.0728,3.0704,3.0732,3.0742,3.074,3.0761,3.0759,3.0782,3.0755,3.0761,3.0784,3.0782,3.0819,3.0777,3.0804,3.0805,3.08,3.0893,3.0908,3.0973,3.0862,3.0864,3.0865,0,3.0693,3.0709,3.0768,3.0774,3.0784,3.081,3.0827,3.0848,3.0858,3.0855,3.0866,3.0851,3.0883,3.0849,3.0891,3.0862,3.0873,3.0874,3.0876,3.0876,3.0837,3.0894,3.0994,3.1003,3.0879,3.0878,3.0877,0,3.0759,3.0797,3.0836,3.0844,3.0852,3.0871,3.0875,3.0882,3.0895,3.091,3.0918,3.0937,3.0947,3.0961,3.0951,3.0927,3.0994,3.0959,3.0991,3.0991,3.1005,3.1004,3.1106,3.1015,3.1015,3.1015,3.1015,0,3.0841,3.0877,3.0866,3.089,3.0929,3.0917,3.0956,3.0957,3.0964,3.0986,3.0967,3.0988,3.0975,3.0995,3.0988,3.1023,3.1028,3.1025,3.1022,3.1026,3.1026,3.1031,3.1025,3.1018,3.1017,3.1017,3.1016,0,3.0922,3.0916,3.0957,3.0961,3.0963,3.0992,3.0995,3.1017,3.1014,3.1043,3.1049,3.1044,3.1066,3.1058,3.1083,3.1078,3.1122,3.1114,3.1119,3.1116,3.1147,3.1144,3.1255,3.1268,3.1171,3.1172,3.1173,0,3.0973,3.1,3.1007,3.1021,3.1027,3.105,3.1063,3.1051,3.1065,3.1077,3.1097,3.1118,3.1134,3.1172,3.1169,3.1188,3.1179,3.1217,3.1181,3.1183,3.1177,3.1175,3.1176,3.1223,3.1224,3.1225,3.1226,0,3.1064,3.1059,3.1079,3.1097,3.1113,3.1126,3.1138,3.1151,3.114,3.1156,3.1179,3.1192,3.1216,3.1237,3.1253,3.1256,3.1239,3.1237,3.1245,3.1248,3.1249,3.1247,3.1135,3.1234,3.1234,3.1233,3.1232,3.1232,3.113,3.1152,3.116,3.1182,3.119,3.1201,3.1221,3.122,3.124,3.1259,3.1251,3.1277,3.1284,3.1304,3.131,3.1329,3.1315,3.1327,3.1329,3.1332,3.1335,3.1247,3.1333,3.1332,3.1332,3.1332,3.1332,0,3.1217,3.1221,3.1242,3.1259,3.1276,3.1259,3.1271,3.1285,3.1309,3.1318,3.1334,3.136,3.1379,3.1379,3.1397,3.1412,3.1405,3.1417,3.1415,3.1415,3.1348,3.1339,3.1423,3.1423,3.1423,3.1423,3.1423,3.1423,3.1265,3.1301,3.1298,3.1337,3.134,3.1366,3.1374,3.1383,3.139,3.142,3.1436,3.1436,3.1441,3.1459,3.1475,3.1475,3.1481,3.1496,3.1492,3.1429,3.142,3.1412,3.1402,3.1498,3.1499,3.1557,3.1558,3.1558]}]]